Tillbaka till svenska Fidonet
English   Information   Debug  
FILM   0/18
FNEWS_PUBLISH   4926
FN_SYSOP   42201
FN_SYSOP_OLD1   71952
FTP_FIDO   0/2
FTSC_PUBLIC   0/13972
FUNNY   0/4886
GENEALOGY.EUR   0/71
GET_INFO   105
GOLDED   0/408
HAM   4525/16660
HOLYSMOKE   0/6791
HOT_SITES   0/1
HTMLEDIT   0/71
HUB203   466
HUB_100   264
HUB_400   39
HUMOR   0/29
IC   0/2851
INTERNET   0/424
INTERUSER   0/3
IP_CONNECT   719
JAMNNTPD   0/233
JAMTLAND   0/47
KATTY_KORNER   0/41
LAN   0/16
LINUX-USER   0/19
LINUXHELP   0/1155
LINUX   0/22300
LINUX_BBS   0/957
mail   18.68
mail_fore_ok   249
MENSA   0/341
MODERATOR   0/102
MONTE   0/992
MOSCOW_OKLAHOMA   0/1245
MUFFIN   0/783
MUSIC   0/321
N203_STAT   938
N203_SYSCHAT   313
NET203   321
NET204   69
NET_DEV   0/10
NORD.ADMIN   0/101
NORD.CHAT   0/2572
NORD.FIDONET   189
NORD.HARDWARE   0/28
NORD.KULTUR   0/114
NORD.PROG   0/32
NORD.SOFTWARE   0/88
NORD.TEKNIK   0/58
NORD   0/453
OCCULT_CHAT   0/93
OS2BBS   0/787
OS2DOSBBS   0/580
OS2HW   0/42
OS2INET   0/37
OS2LAN   0/134
OS2PROG   0/36
OS2REXX   0/113
OS2USER-L   207
OS2   0/4830
OSDEBATE   0/18996
PASCAL   0/490
PERL   0/457
PHP   0/45
POINTS   0/405
POLITICS   0/29554
POL_INC   0/14731
PSION   103
R20_ADMIN   1133
R20_AMATORRADIO   0/2
R20_BEST_OF_FIDONET   16
R20_CHAT   0/896
R20_DEPP   0/3
R20_DEV   400
R20_ECHO2   1831
R20_ECHOPRES   0/35
R20_ESTAT   0/719
R20_FIDONETPROG...
...RAM.MYPOINT
  0/2
R20_FIDONETPROGRAM   0/22
R20_FIDONET   0/248
R20_FILEFIND   0/24
R20_FILEFOUND   0/22
R20_HIFI   0/3
R20_INFO2   3723
R20_INTERNET   0/12940
R20_INTRESSE   0/60
R20_INTR_KOM   0/99
R20_KANDIDAT.CHAT   42
R20_KANDIDAT   28
R20_KOM_DEV   112
R20_KONTROLL   0/13360
R20_KORSET   0/18
R20_LOKALTRAFIK   0/24
R20_MODERATOR   0/1852
R20_NC   76
R20_NET200   245
R20_NETWORK.OTH...
...ERNETS
  0/13
R20_OPERATIVSYS...
...TEM.LINUX
  0/44
R20_PROGRAMVAROR   0/1
R20_REC2NEC   534
R20_SFOSM   0/341
R20_SF   0/108
R20_SPRAK.ENGLISH   0/1
R20_SQUISH   107
R20_TEST   2
R20_WORST_OF_FIDONET   20
RAR   0/9
RA_MULTI   106
RA_UTIL   0/162
REGCON.EUR   0/2068
REGCON   0/13
SCIENCE   0/1206
SF   0/239
SHAREWARE_SUPPORT   0/5146
SHAREWRE   0/14
SIMPSONS   0/169
STATS_OLD1   0/2539.065
STATS_OLD2   0/2530
STATS_OLD3   0/2395.095
STATS_OLD4   0/1692.25
SURVIVOR   0/495
SYSOPS_CORNER   0/3
SYSOP   0/84
TAGLINES   0/112
TEAMOS2   0/4530
TECH   0/2617
TEST.444   0/105
TRAPDOOR   0/19
TREK   0/755
TUB   0/290
UFO   0/40
UNIX   0/1316
USA_EURLINK   0/102
USR_MODEMS   0/1
VATICAN   0/2740
VIETNAM_VETS   0/14
VIRUS   0/378
VIRUS_INFO   0/201
VISUAL_BASIC   0/473
WHITEHOUSE   0/5187
WIN2000   0/101
WIN32   0/30
WIN95   0/4291
WIN95_OLD1   0/70272
WINDOWS   0/1517
WWB_SYSOP   0/419
WWB_TECH   0/810
ZCC-PUBLIC   0/1
ZEC   4

 
4DOS   0/134
ABORTION   0/7
ALASKA_CHAT   0/506
ALLFIX_FILE   0/1313
ALLFIX_FILE_OLD1   0/7997
ALT_DOS   0/152
AMATEUR_RADIO   0/1039
AMIGASALE   0/14
AMIGA   0/331
AMIGA_INT   0/1
AMIGA_PROG   0/20
AMIGA_SYSOP   0/26
ANIME   0/15
ARGUS   0/924
ASCII_ART   0/340
ASIAN_LINK   0/651
ASTRONOMY   0/417
AUDIO   0/92
AUTOMOBILE_RACING   0/105
BABYLON5   0/17862
BAG   135
BATPOWER   0/361
BBBS.ENGLISH   0/382
BBSLAW   0/109
BBS_ADS   0/5290
BBS_INTERNET   0/507
BIBLE   0/3563
BINKD   0/1119
BINKLEY   0/215
BLUEWAVE   0/2173
CABLE_MODEMS   0/25
CBM   0/46
CDRECORD   0/66
CDROM   0/20
CLASSIC_COMPUTER   0/378
COMICS   0/15
CONSPRCY   0/899
COOKING   41444
COOKING_OLD1   0/24719
COOKING_OLD2   0/40862
COOKING_OLD3   0/37489
COOKING_OLD4   0/35496
COOKING_OLD5   9370
C_ECHO   0/189
C_PLUSPLUS   0/31
DIRTY_DOZEN   0/201
DOORGAMES   0/2285
DOS_INTERNET   0/196
duplikat   6102
ECHOLIST   0/18295
EC_SUPPORT   0/318
ELECTRONICS   0/359
ELEKTRONIK.GER   1534
ENET.LINGUISTIC   0/13
ENET.POLITICS   0/4
ENET.SOFT   0/11701
ENET.SYSOP   34296
ENET.TALKS   0/32
ENGLISH_TUTOR   0/2000
EVOLUTION   0/1335
FDECHO   0/217
FDN_ANNOUNCE   0/7068
FIDONEWS   25062
FIDONEWS_OLD1   0/49742
FIDONEWS_OLD2   0/35949
FIDONEWS_OLD3   0/30874
FIDONEWS_OLD4   0/37224
FIDO_SYSOP   12922
FIDO_UTIL   0/180
FILEFIND   0/209
FILEGATE   0/212
Möte HAM, 16660 texter
 lista första sista föregående nästa
Text 4322, 908 rader
Skriven 2011-02-10 23:00:40 av Amsat List (1:323/120.0)
Ärende: [keps]  orb11041.amsa
=============================
[keps]  orb11041.amsa

Return-Path: <keps-bounces@amsat.org>
X-Rcpt: craig.healy@chowda.com
X-UIDL: 1297395397.1664

SB KEPS @ AMSAT  $ORB11041.O
Orbital Elements  11041.OSCAR

HR AMSAT ORBITAL ELEMENTS FOR OSCAR SATELLITES
FROM WA5QGD FORT WORTH,TX February 10, 2011
Send Subscribe/unsubscribe to KEPS at http://www.amsat.org/mailman/listinfo/kep
BID: ORB11041.O
TO ALL RADIO AMATEURS BT

Satellite: AO-07
Catalog number: 07530
Epoch time:      11041.82313980
Element set:       1
Inclination:      101.3952 deg
RA of node:       053.3461 deg
Eccentricity:    0.0011735
Arg of perigee:   166.3441 deg
Mean anomaly:     193.7946 deg
Mean motion:   12.53581184 rev/day
Decay rate:       -2.7e-07 rev/day^2
Epoch rev:           65835
Checksum:              274

Satellite: FO-29
Catalog number: 24278
Epoch time:      11041.89396483
Element set:     505
Inclination:      098.5252 deg
RA of node:       203.1610 deg
Eccentricity:    0.0349889
Arg of perigee:   224.5649 deg
Mean anomaly:     132.6866 deg
Mean motion:   13.52957057 rev/day
Decay rate:       -3.0e-08 rev/day^2
Epoch rev:           71538
Checksum:              334

Satellite: SO-33
Catalog number: 25509
Epoch time:      11041.87248809
Element set:     901
Inclination:      031.4327 deg
RA of node:       238.7157 deg
Eccentricity:    0.0354250
Arg of perigee:   217.0024 deg
Mean anomaly:     140.5640 deg
Mean motion:   14.28363311 rev/day
Decay rate:       -6.1e-07 rev/day^2
Epoch rev:           64220
Checksum:              263

Satellite: RS-22
Catalog number: 27939
Epoch time:      11041.67386513
Element set:     978
Inclination:      097.8609 deg
RA of node:       261.6003 deg
Eccentricity:    0.0014246
Arg of perigee:   029.5036 deg
Mean anomaly:     330.6958 deg
Mean motion:   14.63508440 rev/day
Decay rate:       1.19e-06 rev/day^2
Epoch rev:           39383
Checksum:              319

Satellite: VO-52
Catalog number: 28650
Epoch time:      11041.63364255
Element set:     715
Inclination:      097.6600 deg
RA of node:       090.3323 deg
Eccentricity:    0.0026228
Arg of perigee:   214.4103 deg
Mean anomaly:     145.5459 deg
Mean motion:   14.81906357 rev/day
Decay rate:       4.94e-06 rev/day^2
Epoch rev:           31200
Checksum:              275

Satellite: SO-67
Catalog number: 35870
Epoch time:      11041.78556800
Element set:     549
Inclination:      097.2996 deg
RA of node:       089.1860 deg
Eccentricity:    0.0003174
Arg of perigee:   012.2581 deg
Mean anomaly:     121.5896 deg
Mean motion:   15.21330905 rev/day
Decay rate:      1.017e-05 rev/day^2
Epoch rev:            7772
Checksum:              310

Satellite: HO-68
Catalog number: 36122
Epoch time:      11041.83749678
Element set:     100
Inclination:      100.4342 deg
RA of node:       104.4832 deg
Eccentricity:    0.0007811
Arg of perigee:   149.4778 deg
Mean anomaly:     210.6791 deg
Mean motion:   13.16283933 rev/day
Decay rate:       -4.5e-07 rev/day^2
Epoch rev:            5561
Checksum:              284

/EX
SB KEPS @ AMSAT  $ORB11041.D
Orbital Elements  11041.MICROS

HR AMSAT ORBITAL ELEMENTS FOR THE MICROSATS
FROM WA5QGD FORT WORTH,TX February 10, 2011
Send Subscribe/unsubscribe to KEPS at http://www.amsat.org/mailman/listinfo/kep
BID: ORB11041.D
TO ALL RADIO AMATEURS BT

Satellite: UO-11
Catalog number: 14781
Epoch time:      11041.70536461
Element set:     466
Inclination:      098.0215 deg
RA of node:       098.7126 deg
Eccentricity:    0.0008873
Arg of perigee:   181.7058 deg
Mean anomaly:     178.4120 deg
Mean motion:   14.79885824 rev/day
Decay rate:      -2.37e-06 rev/day^2
Epoch rev:           44708
Checksum:              317

Satellite: AO-16
Catalog number: 20439
Epoch time:      11040.42660846
Element set:    0116
Inclination:      098.3673 deg
RA of node:       354.4248 deg
Eccentricity:    0.0010641
Arg of perigee:   178.3297 deg
Mean anomaly:     181.7922 deg
Mean motion:   14.31894287 rev/day
Decay rate:        1.9e-07 rev/day^2
Epoch rev:           09933
Checksum:              312

Satellite: LO-19
Catalog number: 20442
Epoch time:      11040.87556435
Element set:    0025
Inclination:      098.3308 deg
RA of node:       359.7064 deg
Eccentricity:    0.0011855
Arg of perigee:   170.5282 deg
Mean anomaly:     189.6130 deg
Mean motion:   14.32122177 rev/day
Decay rate:        2.2e-07 rev/day^2
Epoch rev:           09957
Checksum:              291

Satellite: AO-27
Catalog number: 22825
Epoch time:      11041.86594185
Element set:     745
Inclination:      098.5173 deg
RA of node:       349.0181 deg
Eccentricity:    0.0007689
Arg of perigee:   290.6285 deg
Mean anomaly:     069.4089 deg
Mean motion:   14.29325937 rev/day
Decay rate:        4.1e-07 rev/day^2
Epoch rev:           90614
Checksum:              335

Satellite: IO-26
Catalog number: 22826
Epoch time:      11040.90855152
Element set:     483
Inclination:      098.5113 deg
RA of node:       348.5989 deg
Eccentricity:    0.0008236
Arg of perigee:   288.1551 deg
Mean anomaly:     071.8732 deg
Mean motion:   14.29585017 rev/day
Decay rate:        1.0e-07 rev/day^2
Epoch rev:           90612
Checksum:              306

Satellite: GO-32
Catalog number: 25397
Epoch time:      11040.52090924
Element set:    0404
Inclination:      098.3202 deg
RA of node:       039.9556 deg
Eccentricity:    0.0000632
Arg of perigee:   338.0121 deg
Mean anomaly:     022.1022 deg
Mean motion:   14.23196442 rev/day
Decay rate:       1.11e-06 rev/day^2
Epoch rev:           65380
Checksum:              246

